Meteo orario Zagorskiy

Oggi, 29 Luglio, Giovedi

Tempo Temperatura Precipitazioni Vento Pressione Umidità
00:00 +18°C° 0 mm 1 m/s 732 mm Hg 75%
01:00 +15°C° 0 mm 0 m/s 732 mm Hg 75%
02:00 +15°C° 0 mm 0 m/s 732 mm Hg 75%
03:00 +15°C° 0 mm 0 m/s 732 mm Hg 76%
04:00 +16°C° 0 mm 0 m/s 732 mm Hg 74%
05:00 +16°C° 0 mm 0 m/s 732 mm Hg 73%
06:00 +17°C° 0 mm 0 m/s 732 mm Hg 71%
07:00 +21°C° 0 mm 1 m/s 732 mm Hg 64%
08:00 +23°C° 0 mm 2 m/s 732 mm Hg 57%
09:00 +26°C° 0 mm 3 m/s 732 mm Hg 49%
10:00 +27°C° 0 mm 4 m/s 732 mm Hg 45%
11:00 +28°C° 0 mm 5 m/s 732 mm Hg 40%
12:00 +29°C° 0 mm 5 m/s 732 mm Hg 36%
13:00 +30°C° 0 mm 5 m/s 731 mm Hg 35%
14:00 +30°C° 0 mm 5 m/s 731 mm Hg 34%
15:00 +30°C° 0 mm 5 m/s 731 mm Hg 33%
16:00 +30°C° 0 mm 4 m/s 731 mm Hg 36%
17:00 +29°C° 0 mm 4 m/s 730 mm Hg 40%
18:00 +28°C° 0 mm 3 m/s 730 mm Hg 43%
19:00 +26°C° 0 mm 2 m/s 730 mm Hg 47%
20:00 +25°C° 0 mm 1 m/s 730 mm Hg 51%
21:00 +21°C° 0 mm 0 m/s 730 mm Hg 54%
22:00 +22°C° 0 mm 1 m/s 730 mm Hg 57%
23:00 +21°C° 0 mm 1 m/s 730 mm Hg 60%

Domani, 30 Luglio, Venerdi

Tempo Temperatura Precipitazioni Vento Pressione Umidità
00:00 +21°C° 0 mm 1 m/s 730 mm Hg 63%
01:00 +20°C° 0 mm 1 m/s 730 mm Hg 65%
02:00 +20°C° 0 mm 1 m/s 730 mm Hg 68%
03:00 +17°C° 0 mm 0 m/s 730 mm Hg 70%
04:00 +18°C° 0 mm 0 m/s 730 mm Hg 69%
05:00 +18°C° 0 mm 0 m/s 730 mm Hg 69%
06:00 +18°C° 0 mm 0 m/s 730 mm Hg 68%
07:00 +22°C° 0 mm 1 m/s 730 mm Hg 58%
08:00 +25°C° 0 mm 2 m/s 730 mm Hg 47%
09:00 +27°C° 0 mm 3 m/s 730 mm Hg 37%
10:00 +28°C° 0 mm 3 m/s 730 mm Hg 35%
11:00 +29°C° 0 mm 4 m/s 730 mm Hg 33%
12:00 +30°C° 0 mm 4 m/s 730 mm Hg 32%
13:00 +32°C° 0 mm 4 m/s 729 mm Hg 31%
14:00 +33°C° 0 mm 4 m/s 729 mm Hg 30%
15:00 +33°C° 0 mm 3 m/s 729 mm Hg 30%
16:00 +33°C° 0 mm 3 m/s 729 mm Hg 33%
17:00 +31°C° 0 mm 3 m/s 728 mm Hg 37%
18:00 +30°C° 0 mm 2 m/s 728 mm Hg 40%
19:00 +28°C° 0 mm 2 m/s 728 mm Hg 44%
20:00 +26°C° 0 mm 2 m/s 728 mm Hg 48%
21:00 +24°C° 0 mm 1 m/s 728 mm Hg 51%
22:00 +23°C° 0 mm 1 m/s 728 mm Hg 53%
23:00 +23°C° 0 mm 1 m/s 728 mm Hg 55%

Dopodomani, 31 Luglio, Sabato

Tempo Temperatura Precipitazioni Vento Pressione Umidità
00:00 +22°C° 0 mm 1 m/s 728 mm Hg 57%
01:00 +22°C° 0 mm 1 m/s 728 mm Hg 59%
02:00 +21°C° 0 mm 1 m/s 728 mm Hg 60%
03:00 +21°C° 0 mm 1 m/s 728 mm Hg 62%
04:00 +21°C° 0 mm 1 m/s 728 mm Hg 63%
05:00 +21°C° 0 mm 1 m/s 728 mm Hg 64%
06:00 +22°C° 0 mm 1 m/s 728 mm Hg 65%
07:00 +24°C° 0 mm 1 m/s 729 mm Hg 58%
08:00 +26°C° 0 mm 1 m/s 729 mm Hg 51%
09:00 +29°C° 0 mm 1 m/s 729 mm Hg 43%
10:00 +30°C° 0 mm 1 m/s 729 mm Hg 40%
11:00 +31°C° 0 mm 1 m/s 729 mm Hg 36%
12:00 +32°C° 0 mm 2 m/s 729 mm Hg 32%
13:00 +34°C° 0 mm 2 m/s 728 mm Hg 31%
14:00 +34°C° 0 mm 2 m/s 728 mm Hg 30%
15:00 +35°C° 0 mm 2 m/s 728 mm Hg 29%
16:00 +33°C° 0 mm 1 m/s 728 mm Hg 31%
17:00 +33°C° 0 mm 1 m/s 728 mm Hg 34%
18:00 +33°C° 0 mm 1 m/s 728 mm Hg 37%
19:00 +30°C° 0 mm 1 m/s 728 mm Hg 40%
20:00 +28°C° 0 mm 1 m/s 728 mm Hg 43%
21:00 +26°C° 0 mm 1 m/s 728 mm Hg 46%
22:00 +25°C° 0 mm 1 m/s 728 mm Hg 49%
23:00 +25°C° 0 mm 1 m/s 728 mm Hg 52%

1 Agosto, Domenica

Tempo Temperatura Precipitazioni Vento Pressione Umidità
00:00 +24°C° 0 mm 1 m/s 728 mm Hg 55%
01:00 +24°C° 0 mm 1 m/s 728 mm Hg 56%
02:00 +23°C° 0 mm 1 m/s 728 mm Hg 57%
03:00 +23°C° 0 mm 2 m/s 728 mm Hg 59%
04:00 +23°C° 0 mm 2 m/s 729 mm Hg 60%
05:00 +23°C° 0 mm 2 m/s 729 mm Hg 60%
06:00 +23°C° 0 mm 2 m/s 729 mm Hg 61%
07:00 +26°C° 0 mm 1 m/s 729 mm Hg 55%
08:00 +28°C° 0 mm 1 m/s 729 mm Hg 48%
09:00 +31°C° 0 mm 1 m/s 730 mm Hg 41%
10:00 +32°C° 0 mm 1 m/s 730 mm Hg 38%
11:00 +34°C° 0 mm 2 m/s 729 mm Hg 34%
12:00 +35°C° 0 mm 3 m/s 729 mm Hg 30%
13:00 +36°C° 0 mm 3 m/s 729 mm Hg 29%
14:00 +36°C° 0 mm 3 m/s 729 mm Hg 28%
15:00 +37°C° 0 mm 4 m/s 729 mm Hg 27%
16:00 +36°C° 0 mm 3 m/s 728 mm Hg 29%
17:00 +35°C° 0 mm 3 m/s 728 mm Hg 31%
18:00 +34°C° 0 mm 3 m/s 728 mm Hg 32%
19:00 +31°C° 0 mm 2 m/s 728 mm Hg 35%
20:00 +29°C° 0 mm 1 m/s 728 mm Hg 37%
21:00 +27°C° 0 mm 1 m/s 728 mm Hg 39%
22:00 +27°C° 0 mm 1 m/s 728 mm Hg 41%
23:00 +26°C° 0 mm 1 m/s 728 mm Hg 43%

2 Agosto, Lunedi

Tempo Temperatura Precipitazioni Vento Pressione Umidità
00:00 +25°C° 0 mm 1 m/s 728 mm Hg 44%
01:00 +25°C° 0 mm 1 m/s 728 mm Hg 46%
02:00 +24°C° 0 mm 1 m/s 728 mm Hg 48%
03:00 +24°C° 0 mm 1 m/s 728 mm Hg 50%
04:00 +24°C° 0 mm 1 m/s 728 mm Hg 52%
05:00 +24°C° 0 mm 1 m/s 729 mm Hg 54%
06:00 +24°C° 0 mm 1 m/s 729 mm Hg 56%
07:00 +26°C° 0 mm 1 m/s 729 mm Hg 50%
08:00 +28°C° 0 mm 1 m/s 729 mm Hg 44%
09:00 +31°C° 0 mm 1 m/s 729 mm Hg 38%
10:00 +32°C° 0 mm 1 m/s 729 mm Hg 34%
11:00 +34°C° 0 mm 1 m/s 729 mm Hg 31%
12:00 +35°C° 0 mm 1 m/s 729 mm Hg 28%
13:00 +37°C° 0 mm 2 m/s 728 mm Hg 26%
14:00 +37°C° 0 mm 2 m/s 728 mm Hg 25%
15:00 +38°C° 0 mm 2 m/s 728 mm Hg 24%
16:00 +37°C° 0 mm 2 m/s 728 mm Hg 27%
17:00 +36°C° 0 mm 2 m/s 728 mm Hg 30%
18:00 +35°C° 0 mm 2 m/s 728 mm Hg 34%
19:00 +32°C° 0 mm 2 m/s 728 mm Hg 37%
20:00 +30°C° 0 mm 2 m/s 728 mm Hg 41%
21:00 +28°C° 0 mm 2 m/s 728 mm Hg 44%
22:00 +27°C° 0 mm 1 m/s 728 mm Hg 46%
23:00 +27°C° 0 mm 1 m/s 728 mm Hg 48%

3 Agosto, Martedi

Tempo Temperatura Precipitazioni Vento Pressione Umidità
00:00 +26°C° 0 mm 1 m/s 728 mm Hg 50%
01:00 +25°C° 0 mm 1 m/s 728 mm Hg 51%
02:00 +25°C° 0 mm 2 m/s 728 mm Hg 52%
03:00 +25°C° 0 mm 2 m/s 728 mm Hg 53%
04:00 +25°C° 0 mm 2 m/s 728 mm Hg 54%
05:00 +25°C° 0 mm 2 m/s 729 mm Hg 55%
06:00 +25°C° 0 mm 2 m/s 729 mm Hg 56%
07:00 +27°C° 0 mm 3 m/s 729 mm Hg 50%
08:00 +29°C° 0 mm 3 m/s 729 mm Hg 45%
09:00 +33°C° 0 mm 3 m/s 730 mm Hg 40%
10:00 +34°C° 0 mm 3 m/s 730 mm Hg 36%
11:00 +36°C° 0 mm 3 m/s 730 mm Hg 32%
12:00 +37°C° 0 mm 3 m/s 730 mm Hg 28%
13:00 +38°C° 0 mm 3 m/s 729 mm Hg 26%
14:00 +38°C° 0 mm 3 m/s 729 mm Hg 24%
15:00 +39°C° 0 mm 3 m/s 729 mm Hg 22%
16:00 +38°C° 0 mm 3 m/s 729 mm Hg 24%
17:00 +38°C° 0 mm 2 m/s 729 mm Hg 26%
18:00 +37°C° 0 mm 2 m/s 729 mm Hg 29%
19:00 +35°C° 0 mm 2 m/s 729 mm Hg 34%
20:00 +31°C° 0 mm 3 m/s 729 mm Hg 39%
21:00 +29°C° 0 mm 3 m/s 730 mm Hg 44%
22:00 +28°C° 0 mm 3 m/s 730 mm Hg 46%
23:00 +28°C° 0 mm 3 m/s 730 mm Hg 48%
Mostrare altro

Abbiamo bisogno del tuo consenso

Meteoprog e i nostri fornitori di servizi possono memorizzare e accedere a dati personali come cookie, identificatori di dispositivi o altre tecnologie simili sul tuo dispositivo e possono elaborare tali dati per personalizzare i contenuti e gli annunci, nonché fornire funzionalità dei social media e analizzarne il traffico.

  • Archiviare e/o accedere alle informazioni sul tuo dispositivo

    Cookie, identificatori di dispositivi o altre informazioni possono essere memorizzati o resi accessibili sul tuo dispositivo per le finalità sopra indicate.

  • Annunci e contenuti personalizzati, misurazione di annunci e contenuti, approfondimenti sul pubblico e sviluppo di prodotti

    Gli annunci e i contenuti possono essere personalizzati in base a un profilo. È possibile aggiungere più dati per personalizzare meglio annunci e contenuti. È possibile misurare il rendimento degli annunci e dei contenuti. È possibile ricavare informazioni sul pubblico che ha visto gli annunci e i contenuti. Tali dati possono essere utilizzati per sviluppare o migliorare l'esperienza, i sistemi e il software dell'utente.

Cliccando su “Accetto”, acconsenti all'uso di cookie, identificatori di dispositivo, web beacon o altre tecnologie simili. Puoi modificare le impostazioni nel browser del tuo dispositivo.

Per determinati scopi, è possibile fare affidamento su interessi legali, piuttosto che sul consenso. Puoi approfondire questo argomento consultando la nostra Informativa sulla privacy e sui cookie.